Brownsville, TX (78520)

9:53 PM CST on February 10, 2016 (GMT -0600)
RGV | | Change Station
CLOSE
Current Station
Personal Weather Station
Location: Brownsville, TX
Elevation: 26 ft
Nearby Weather Stations

Elev 26 ft 25.99 °N, 97.47 °W | Updated 3 minutes ago

Clear
Clear
62.4 °F
Feels Like 62.4 °F
N
0.0
Wind Variable Wind from South
Gusts 2.0 mph

Today
High -- | Low -- °F
--% Chance of Precip.
Yesterday
High -- | Low -- °F
Precip. -- in
Pressure 30.31 in
Visibility 10.0 miles
Clouds Clear
Dew Point 51 °F
Humidity 67%
Rainfall 0.00 in
Snow Depth Not available.
7:09 AM 6:19 PM
Waxing Crescent, 9% visible
METAR KBRO 110253Z 16007KT 10SM CLR 13/08 A3031 RMK AO2 SLP263 T01330083 50004
Pressure 30.31 in
Visibility 10.0 miles
Clouds Clear
Dew Point 51 °F
Humidity 67%
Rainfall 0.00 in
Snow Depth Not available.
7:09 AM 6:19 PM
Waxing Crescent, 9% visible
METAR KBRO 110253Z 16007KT 10SM CLR 13/08 A3031 RMK AO2 SLP263 T01330083 50004

10-Day Weather Forecast

Almanac

Astronomy

Feb. 10, 2016 Rise Set
Actual Time
Civil Twilight
Nautical Twilight
Astronomical Twilight
Moon
Length of Visible Light
Length of Day
Tomorrow will be .
, % of the Moon is Illuminated

Today's Extremes

State Highs State Lows

Community

WunderPhotos

Upload Photos

1,892,000 photos uploaded!

WunderBlog® & News

Nearby

Air Quality

  Air Quality AQ Index Pollutant
Not available.

Snow Depth

Station Depth Elevation

Earthquake Activity

City Distance Mag. Time & Date
Minimum magnitude displayed is 2.5.

Coastal Water Temperatures

Place Temperature

Stations

Nearby Weather Stations

Station Location Temp. Windchill Dew Point Humidity Wind Precip. Elev Updated Type
                   

Watches & Warnings

There are currently no watches in effect.